Preview of NWS' New Version of Forecast
This preview is not operational and should not be used for support decisions.
Latest weather observations around

Emporia, Emporia Municipal Airport (KEMP)

Using English Units (Switch to International System of Units)
Date/ Time (CDT) Wind (mph) Vis. (mi) Weather Sky Cond. Temp (°F) Rel. Humidity Wind Chill (°F) Heat Index (°F) Pressure Precip. (in)
Air Dwpt 6 hour Altimeter (inHg) Sea level (inHg) 1 hr 3 hr 6 hr
Max Min
Jun 24 10:53 NW 9 10 Clear CLR 70 55     59%     29.89 29.87      
Jun 24 09:53 WNW 9 10 Clear CLR 67 56     68%     29.9 29.88      
Jun 24 08:53 WNW 10 10 Clear CLR 64 55     73%     29.88 29.86      
Jun 24 07:53 NW 10 10 Clear CLR 61 55     81%     29.86 29.85      
Jun 24 06:53 WNW 8 10 Clear CLR 58 56     93%     29.85 29.83      
Jun 24 05:53 WNW 10 10 Partly Cloudy SCT085 58 56     93%     29.84 29.82      
Jun 24 04:53 NW 11 10 Mostly Cloudy SCT009 BKN095 60 58     93%     29.82 29.8      
Jun 24 04:09 NW 13 10 Mostly Cloudy BKN008 62 61     96%     29.8        
Jun 24 03:53 NW 9 10 Partly Cloudy FEW007 SCT080 62 61     96%     29.79 29.77      
Jun 24 03:41 NW 9 10 Mostly Cloudy FEW007 BKN075 63 63     100%     29.79        
Jun 24 02:53 WNW 5 10 Mostly Cloudy SCT050 BKN060 64 63     96%     29.79 29.77      
Jun 24 01:53 NNW 3 10 Cloudy OVC048 66 64     93%     29.8 29.78      
Jun 24 00:53 NW 3 10 Clear CLR 67 64     90%     29.81 29.79      
Jun 23 23:53 W 3 10 Clear CLR 68 66     93%     29.8 29.78      
Jun 23 22:53 WNW 5 10 Clear CLR 69 65     87%     29.78 29.76      
Jun 23 21:53 Calm 10 Partly Cloudy SCT065 72 65     79%   73 29.76 29.74      
Jun 23 20:53 NW 3 10 Partly Cloudy FEW039 FEW048 SCT060 73 69     87%   74 29.77 29.75      
Jun 23 19:53 Calm 10 Partly Cloudy SCT065 75 69     82%   76 29.76 29.73      
Jun 23 18:53 WNW 6 10 Clear CLR 76 66     71%   77 29.75 29.72      
Jun 23 17:53 WNW 8 10 Mostly Clear FEW040 FEW050 77 65     66%   78 29.74 29.72      
Jun 23 16:53 WSW 10 10 Mostly Clear FEW036 77 65     66%   78 29.75 29.73      
Jun 23 15:53 W 8 10 Partly Cloudy SCT031 76 65     69%   76 29.78 29.76      
Jun 23 14:53 W 8 10 Mostly Cloudy SCT025 BKN035 74 65     74%   74 29.8 29.78      
Jun 23 14:18 W 10 10 Cloudy FEW020 OVC030 73 64     73%   73 29.82        
Jun 23 13:53 W 8 10 Cloudy SCT020 OVC026 71 64     79%   72 29.83 29.81      
Jun 23 12:53 5 10 Mostly Cloudy BKN018 69 64     84%     29.82 29.8     0
Jun 23 12:44 S 8 10 Mostly Cloudy BKN016 69 64     84%     29.81        
Jun 23 11:53 SSE 10 10 Clear CLR 68 64     87%     29.78 29.76      
Jun 23 10:53 SSE 9 10 Clear CLR 66 64     93%     29.76 29.74      
Jun 23 09:53 SE 5 10 Clear CLR 64 63     96%     29.77 29.76   0  
Jun 23 08:53 ENE 9 10 Partly Cloudy FEW037 FEW075 SCT100 64 63     96%     29.77   0    
Jun 23 07:53 NNE 16 7 Light Rain FEW080 BKN120 62 62     100%     29.82 29.8 0    
Jun 23 07:50 NNE 14 7 Light Rain FEW080 BKN120 63 63     100%     29.82   0    
Jun 23 07:35 NNE 11 4 Thunderstorms and Rain and Fog/Mist FEW050 BKN075 OVC110 63 63     100%     29.87   0    
Jun 23 07:28 NNE 10 5 Rain and Fog/Mist FEW003 SCT050 OVC080 63 63     100%     29.88   0    
Jun 23 07:09 NE 14 4 Rain and Fog/Mist FEW003 BKN080 OVC100 64 64     100%     29.86   0    
Jun 23 06:53 ENE 8 5 Light Rain and Fog/Mist FEW013 SCT027 OVC090 63 63     100%     29.9 29.87 0   2
Jun 23 06:48 5 3 Thunderstorms and Rain and Fog/Mist SCT011 BKN029 OVC095 63 63     100%     29.91   0    
Jun 23 06:43 NNE 7 1.5 Thunderstorms and Heavy Rain and Fog/Mist FEW005 BKN029 OVC080 63 63     100%     29.9   0    
Jun 23 06:38 N 7 1 Thunderstorms and Heavy Rain and Fog/Mist FEW005 SCT014 OVC027 63 63     100%     29.91   0    
Jun 23 06:32 WNW 9 1.75 Heavy Rain and Fog/Mist FEW005 BKN014 OVC037 64 64     100%     29.94   0    
Jun 23 06:20 NNW 8 2.5 Heavy Rain and Fog/Mist FEW006 OVC043 63 63     100%     29.9   0    
Jun 23 06:16 N 6 3 Rain and Fog/Mist BKN046 OVC065 63 63     100%     29.89   0    
Jun 23 05:57 NNE 9 2 Heavy Rain and Fog/Mist BKN040 OVC055 63 63     100%     29.87   0    
Jun 23 05:48 NNE 7 1.5 Heavy Rain and Fog/Mist BKN033 OVC060 63 63     100%     29.87 29.84 1    
Jun 23 05:47 NNE 8 1.5 Heavy Rain and Fog/Mist BKN033 OVC060 63 63     100%     29.87   1    
Jun 23 05:38 ENE 6 1.5 Clear   63 63     100%     29.87   1    
Jun 23 05:30 NNE 8 1.75 Clear   63 63     100%     29.86   1    
Jun 23 05:20 NNE 7 1.5 Clear   63 63     100%     29.85   1    
Jun 23 05:14 E 7 1 Clear   63 63     100%     29.84   1    
Jun 23 05:05 N 9 0.5 Clear   63 63     100%     29.84   0    
Jun 23 05:01 N 8 0.75 Clear   63 63     100%     29.86   0    
Jun 23 04:59 N 6 1 Clear   63 63     100%     29.86   0    
Jun 23 04:57 NNW 9 1.25 Clear   63 63     100%     29.86   0    
Jun 23 04:53 NNW 10 2.5 Clear   63 63     100%     29.86 29.83 0    
Jun 23 04:34 5 10 Cloudy OVC009 65 65     100%     29.83   0    
Jun 23 04:06 ESE 21 10 Cloudy and Windy BKN010 BKN024 OVC032 65 64     97%     29.79   0    
Jun 23 03:53 ESE 23 8 Light Rain BKN009 OVC024 65 65     100%     29.8 29.77 0 0  
Jun 23 03:00 ESE 17 10 Cloudy OVC006 66 65     96%     29.82        
Jun 23 02:53 ESE 17 10 Cloudy OVC008 66 65     96%     29.83 29.8      
Jun 23 02:45 E 22 10 Cloudy and Windy BKN008 OVC025 66 66     100%     29.82        
Jun 23 02:35 E 20 10 Mostly Cloudy and Windy BKN006 BKN025 BKN034 66 66     100%     29.82        
Jun 23 02:00 E 16 10 Cloudy FEW007 BKN042 OVC080 66 66     100%     29.85        
Jun 23 01:53 E 16 10 Cloudy SCT007 BKN041 OVC050 67 66     97%     29.86 29.83 0    
Jun 23 01:37 ESE 20 10 Light Rain BKN007 BKN026 OVC070 66 66     100%     29.87   0    
Jun 23 01:05 SE 17 3 Thunderstorms and Rain and Fog/Mist BKN008 BKN014 OVC050 67 67     100%     29.92   0    
Jun 23 01:01 SE 20 3 Heavy Rain and Fog/Mist SCT008 BKN014 OVC050 67 67     100%     29.92   0    
Jun 23 00:56 SE 15 2.5 Heavy Rain and Fog/Mist BKN010 OVC050 67 67     100%     29.91   0    
Jun 23 00:53 SE 16 3 Heavy Rain and Fog/Mist BKN010 OVC050 67 67     100%     29.9 29.88 0   1
Jun 23 00:51 SE 15 4 Heavy Rain and Fog/Mist SCT010 OVC050 66 66     100%     29.91   0    
Jun 23 00:04 E 8 10 Mostly Clear FEW006 67 67     100%     29.88   0    
Jun 22 23:53 E 16 10 Light Rain FEW110 67 67     100%     29.83   0    
Jun 22 23:38 E 15 10 Thunderstorms and Rain BKN120 68 67     96%     29.83   0    
Jun 22 23:04 SE 9 9 Light Rain BKN100 OVC120 69 67     93%     29.88   0    
Jun 22 22:53 S 7 7 Light Rain FEW080 BKN100 OVC120 68 67     96%     29.9 29.87 0    
Jun 22 22:48 S 7 5 Light Rain and Fog/Mist BKN090 OVC110 68 66     94%     29.89   0    
Jun 22 22:23 WSW 6 7 Light Rain FEW048 BKN095 OVC110 67 66     97%     29.86   0    
Jun 22 21:53 E 8 4 Thunderstorms and Rain and Fog/Mist FEW037 BKN070 OVC110 67 66     97%     29.87 29.85 1 1  
Jun 22 21:43   6 Thunderstorms and Rain and Fog/Mist SCT025 BKN090 OVC110 67 66     97%     29.89   1    
Jun 22 21:36 E 9 2 Thunderstorms and Rain and Fog/Mist FEW009 BKN027 OVC110 66 66     100%     29.86   1    
Jun 22 21:34 E 7 1.25 Thunderstorms and Rain and Fog/Mist FEW009 BKN027 OVC110 66 66     100%     29.86   1    
Notice The following observation data may not be complete
Jun 22 21:16 W 13 0.5 Thunderstorms and Heavy Rain and Fog SCT007 BKN016 OVC035   66      %     29.81   0    
Jun 22 21:13   1 Thunderstorms and Heavy Rain and Fog/Mist SCT010 BKN024 OVC035 67 65     93%     29.8   0    
Jun 22 21:11   1.75 Thunderstorms and Heavy Rain and Fog/Mist FEW010 BKN021 OVC035 68 65     90%     29.82   0    
Jun 22 21:02   10 Thunderstorms FEW023 BKN033 BKN070 73 64     73%   73 29.82        
Jun 22 20:53   10 Mostly Cloudy FEW021 SCT033 BKN044 72 64     76%   72 29.8 29.78      
Jun 22 19:53 SSE 13 8 Partly Cloudy SCT055 82 76     82%   89 29.76 29.73      
Jun 22 18:53 S 20 8 Cloudy and Windy FEW025 BKN039 OVC045 84 77     80%   94 29.76 29.73      
Jun 22 17:53 SSE 14 9 Mostly Cloudy SCT025 SCT035 BKN055 85 77     77%   95 29.76 29.73      
Jun 22 16:53 SSE 15 9 Mostly Clear FEW021 FEW035 84 77     80%   94 29.81 29.78      
Jun 22 15:53 SSE 17 10 Mostly Clear FEW026 85 77     77%   95 29.82 29.78      
Jun 22 14:53 S 15 10 Mostly Cloudy FEW027 SCT035 BKN065 86 77     75%   97 29.83 29.79      
Jun 22 13:53 SSE 10 10 Mostly Cloudy SCT021 BKN055 85 77     77%   95 29.84 29.8      
Jun 22 12:53 SE 14 10 Cloudy FEW023 SCT029 OVC043 82 74     77%   88 29.85 29.82      
Jun 22 12:36 SSE 11 10 Cloudy SCT027 OVC041 82 72     72%   87 29.86        
Jun 22 12:12 SE 13 10 Mostly Cloudy BKN029 BKN039 81 70     69%   84 29.87        
Jun 22 11:53 SE 9 10 Clear CLR 82 71     69%   86 29.87 29.83      
Jun 22 10:53 E 9 10 Clear CLR 77 67     71%   78 29.85 29.82      
Jun 22 09:53 SE 10 10 Clear CLR 77 67     71%   78 29.86 29.83      
Jun 22 08:53 SSE 5 10 Clear CLR 73 68     84%   74 29.87 29.83      
Jun 22 07:53 Calm 10 Clear CLR 70 66     87%     29.84 29.8      
Jun 22 06:53 S 7 10 Clear CLR 68 65     90%     29.79 29.75 0   0
Jun 22 06:00 E 11 10 Light Rain FEW032 FEW090 SCT110 67 64     90%         0    
Jun 22 05:53   10 Light Rain SCT100 SCT120 67 64     90%         0    
Jun 22 05:49 E 10 10 Light Rain FEW041 BKN110 66 64     94%     29.81   0    
Jun 22 05:19 WNW 20 3 Thunderstorms and Rain FEW038 BKN110 68 63     84%     29.88   0    
Jun 22 05:09   1.75 Thunderstorms and Heavy Rain and Fog/Mist FEW038 OVC100 68 64     87%     29.88   0    
Jun 22 05:02 W 21 10 Thunderstorms and Rain OVC100 70 64     81%     29.9   0    
Jun 22 04:53   10 Cloudy BKN095 OVC110 70 63     78%     29.85 29.82 0    
Jun 22 04:15 SW 10 10 Light Rain FEW042 FEW075 BKN110 73 63     71%   73 29.79   0    
Jun 22 03:53 ESE 5 4 Haze FEW060 BKN100 72 64     76%   72 29.76 29.72      
Jun 22 03:51 ESE 3 1.75 Haze FEW060 BKN110 72 64     78%   72 29.77        
Jun 22 03:44 SE 6 1.75 Haze FEW060 SCT120 73 63     71%   73 29.77        
Jun 22 02:53 6 10 Mostly Clear FEW110 74 64     71%   74 29.75 29.71      
Jun 22 01:53 SW 14 10 Clear CLR 79 73     82%   82 29.78 29.74      
Jun 22 00:53 S 14 10 Clear CLR 80 75     85%   85 29.76 29.72      
Jun 21 23:53 S 8 10 Mostly Clear FEW070 80 76     87%   85 29.74 29.71      
Jun 21 22:53 S 11 10 Clear CLR 81 76     85%   87 29.73 29.7      
Jun 21 21:53 S 14 10 Clear CLR 83 76     79%   91 29.69 29.67      
Jun 21 20:53 S 16 9 Clear CLR 84 77     80%   94 29.67 29.63      
Jun 21 19:53 S 17 9 Clear CLR 87 77     72%   99 29.66 29.62      
Jun 21 18:53 S 16 9 Clear CLR 89 77     68%   102 29.64 29.6      
Jun 21 17:53 SSE 15 9 Clear CLR 90 79     70%   106 29.64 29.6      
Jun 21 16:53 SSE 18 9 Mostly Cloudy FEW036 SCT045 BKN060 90 79     70%   106 29.65 29.61      
Jun 21 15:53 SSE 21 8 Mostly Cloudy and Windy BKN037 BKN045 89 79     72%   105 29.64 29.6      
Jun 21 14:53 SE 14 10 Clear CLR 88 79     75%   103 29.64 29.6      
Jun 21 13:53 SE 17 10 Clear CLR 82 74     77%   88 29.66 29.63      
Jun 21 12:53 E 13 10 Mostly Clear FEW011 77 72     84%   78 29.69 29.66     0
Jun 21 11:53 NE 5 10 Partly Cloudy SCT008 72 69     91%   73 29.72 29.69      
Jun 21 11:43 E 5 10 Partly Cloudy SCT008 71 68     90%   72 29.72        
Jun 21 10:53 SE 9 10 Clear CLR 67 67     100%     29.67 29.65 0    
Jun 21 10:17 E 13 10 Light Rain FEW040 BKN100 65 65     100%     29.67   0    
Jun 21 10:05   8 Thunderstorms and Rain SCT038 BKN095 OVC110 66 66     100%     29.66   0    
Jun 21 09:58 ENE 15 2 Thunderstorms and Rain and Fog/Mist BKN037 BKN070 OVC110 65 65     100%     29.68   0    
Jun 21 09:53   1.25 Thunderstorms and Heavy Rain and Fog/Mist BKN033 BKN044 OVC110 65 65     100%       29.65 0 0  
Jun 21 09:51   1 Thunderstorms and Heavy Rain and Fog/Mist BKN031 BKN044 OVC070 64 64     100%         0    
Jun 21 09:46   1.5 Thunderstorms and Heavy Rain and Fog/Mist FEW024 BKN031 OVC039 65 64     97%     29.73   0    
May 15 08:14 Calm 10 Cloudy FEW017 OVC036 64 62     93%     30        
May 15 05:53 W 3 10 Mostly Cloudy BKN046 62 61     96%     29.94 29.93      
May 15 01:53 Calm 10 Light Rain SCT050 SCT070 BKN095 64 61     90%     29.94 29.91 0    
May 14 18:32   1.75 Rain and Fog/Mist FEW050 BKN060 OVC090 69 65     87%     29.82   0    
May 13 13:53 S 18 10 Clear CLR 87 69     55%   91 29.91 29.88      
May 13 06:53 S 14 10 Clear CLR 67 63     87%     29.94 29.91      
May 12 13:53 S 18 10 Cloudy OVC048 82 65     56%   84 29.85 29.82      
May 12 02:53 S 17 10 Clear CLR 72 61     68%   72 29.8 29.77      
Jun 12 07:53   10 Clear CLR 72 67     84%   73 29.87 29.83      
Jun 12 01:53 S 16 10 Clear CLR 73 66     79%   74 29.85 29.81      
Jun 11 11:53   10 Clear CLR 84 67     57%   87 29.81 29.77      
Jun 10 23:53 SSE 17 10 Clear CLR 74 67     79%   75 29.79 29.76      
Jun 10 21:53 SSE 17 10 Clear   77 69     77%   78 29.76 29.73      
Jun 10 12:53 S 22 10 Mostly Clear and Windy FEW028 82 69     65%   85 29.77 29.74      
Jun 10 09:20 S 22 10 Partly Cloudy and Windy SCT018 73 64     73%   73 29.8        
Jun 10 07:53 S 21 10 Mostly Cloudy and Windy BKN022 68 62     81%     29.81 29.78      
Jun 08 21:53 S 7 10 Clear CLR 65 55     70%     29.91 29.89      
Jun 08 18:53 SSE 6 10 Clear CLR 78 51     39%   77 29.92 29.9      
Jun 08 09:53 S 6 10 Clear CLR 73 50     44%   72 30.07 30.05      
Jun 08 07:53 Calm 10 Clear CLR 60 56     86%     30.07 30.05      
Jun 06 02:53 E 6 10 Clear CLR 68 62     81%     29.93 29.89